Location: Douglas
(31.5112°N, 82.8487°W)
Time: 21:24:33
(UTC-04:00)

OTV 5 (USA 277) - Visible Passes

Search period start: 21 July 2018 00:00
Search period end: 31 July 2018 00:00
Orbit: 312 x 321 km, 54.5° (Epoch: 05 July)

Date Brightness Start Highest point End Pass type
(mag) Time Alt. Az. Time Alt. Az. Time Alt. Az.
26 Jul ? 05:23:35 14° SSE 05:24:48 18° SE 05:26:46 10° ENE visible
27 Jul ? 05:37:54 28° SSW 05:39:07 74° SE 05:41:48 10° NE visible
28 Jul ? 05:52:07 17° W 05:53:34 27° NW 05:55:56 10° NNE visible
29 Jul ? 04:35:23 17° ENE 04:35:23 17° ENE 04:36:16 10° ENE visible
29 Jul ? 06:07:54 10° NW 06:08:12 10° NW 06:08:31 10° NNW visible
30 Jul ? 04:49:27 25° NNE 04:49:27 25° NNE 04:50:49 10° NNE visible
